This is the latest recevied weather packets stored in our database for station/object K3BAY-1. If no packets are shown the sender has not sent any weather packets the latest 10 day(s).
| Time | Temp. | Humidity | Pressure | Rain* | Wind** | Luminosity | Snow |
|---|---|---|---|---|---|---|---|
| 1777894883 | 12.22° C | 61% | 1014.6 hPa | 0 mm | - | 42 W/m² | - |
| 1777894581 | 12.22° C | 63% | 1014.9 hPa | 0 mm | - | 46 W/m² | - |
| 1777894278 | 11.67° C | 64% | 1014.9 hPa | 0 mm | - | 42 W/m² | - |
| 1777893974 | 11.67° C | 65% | 1014.9 hPa | 0 mm | - | 35 W/m² | - |
| 1777893671 | 11.67° C | 67% | 1014.9 hPa | 0 mm | - | 30 W/m² | - |
| 1777893367 | 11.11° C | 68% | 1014.9 hPa | 0 mm | - | 26 W/m² | - |
| 1777893063 | 11.11° C | 67% | 1014.9 hPa | 0 mm | - | 24 W/m² | - |
| 1777892761 | 11.11° C | 67% | 1014.6 hPa | 0 mm | - | 21 W/m² | - |
| 1777892456 | 11.11° C | 67% | 1014.2 hPa | 0 mm | - | 19 W/m² | - |
| 1777892152 | 11.11° C | 67% | 1014.2 hPa | 0 mm | - | 17 W/m² | - |
| 1777891849 | 11.11° C | 66% | 1014.2 hPa | 0 mm | - | 14 W/m² | - |
| 1777891547 | 11.67° C | 66% | 1014.2 hPa | 0 mm | - | 14 W/m² | - |
| 1777891243 | 11.11° C | 66% | 1014.6 hPa | 0 mm | - | 16 W/m² | - |
| 1777890943 | 11.11° C | 66% | 1014.2 hPa | 0 mm | - | 15 W/m² | - |
| 1777890638 | 11.11° C | 67% | 1014.2 hPa | 0 mm | - | 12 W/m² | - |
| 1777890334 | 11.11° C | 67% | 1014.6 hPa | 0 mm | - | 10 W/m² | - |
| 1777890030 | 11.11° C | 67% | 1014.6 hPa | 0 mm | - | 5 W/m² | - |
| 1777889728 | 11.11° C | 68% | 1014.6 hPa | 0 mm | - | 4 W/m² | - |
| 1777889426 | 10.56° C | 70% | 1014.6 hPa | 0 mm | - | 2 W/m² | - |
| 1777889123 | 11.11° C | 69% | 1014.2 hPa | 0 mm | - | 0 W/m² | - |
| 1777888821 | 10.56° C | 71% | 1014.6 hPa | 0 mm | - | 0 W/m² | - |
| 1777888516 | 10.56° C | 71% | 1014.2 hPa | 0 mm | - | 0 W/m² | - |
| 1777888212 | 10.56° C | 72% | 1014.6 hPa | 0 mm | - | 0 W/m² | - |
| 1777887910 | 10.56° C | 73% | 1014.2 hPa | 0 mm | - | 0 W/m² | - |
| 1777887607 | 10.56° C | 73% | 1014.9 hPa | 0 mm | - | 0 W/m² | - |
* Rain latest hour (hover to see other rain measurements)
** Current wind speed in m/s (hover to see current wind gust speed)